| time (UTC) | temp C | wind direction | speed KPH | gust KPH | rain 1hr cm | rain 24hr cm | rain mn cm | humidity % | barometer mb |
| 20260507104550 | 15 | 128 | 1.6 | 9.7 | 0.00 | 0.00 | 0.00 | 56 | 1016.8 |
| 20260507103054 | 15 | 213 | 1.6 | 11.3 | 0.00 | 0.00 | 0.00 | 58 | 1016.8 |
| 20260507101553 | 15 | 140 | 4.8 | 11.3 | 0.00 | 0.00 | 0.00 | 56 | 1016.9 |
| 20260507100051 | 15 | 0 | 0.0 | 11.3 | 0.00 | 0.00 | 0.00 | 59 | 1016.8 |
| 20260507094554 | 14 | 155 | 4.8 | 11.3 | 0.00 | 0.00 | 0.00 | 58 | 1016.8 |
| 20260507093052 | 13 | 241 | 3.2 | 11.3 | 0.00 | 0.00 | 0.00 | 63 | 1016.8 |
| 20260507091559 | 12 | 0 | 1.6 | 6.4 | 0.00 | 0.00 | 0.00 | 67 | 1016.8 |
| 20260507090049 | 12 | 152 | 0.0 | 4.8 | 0.00 | 0.00 | 0.00 | 69 | 1016.8 |
| 20260507084551 | 12 | 0 | 0.0 | 4.8 | 0.00 | 0.00 | 0.00 | 69 | 1016.8 |
| 20260507083056 | 12 | 108 | 1.6 | 11.3 | 0.00 | 0.00 | 0.00 | 67 | 1016.8 |
| 20260507081544 | 11 | 162 | 0.0 | 4.8 | 0.00 | 0.00 | 0.00 | 69 | 1016.7 |
| 20260507080114 | 11 | 149 | 1.6 | 6.4 | 0.00 | 0.00 | 0.00 | 69 | 1016.8 |
| 20260507074556 | 11 | 117 | 1.6 | 9.7 | 0.00 | 0.00 | 0.00 | 69 | 1016.6 |
| 20260507073058 | 11 | 113 | 1.6 | 6.4 | 0.00 | 0.00 | 0.00 | 71 | 1016.6 |
| 20260507071600 | 10 | 122 | 0.0 | 6.4 | 0.00 | 0.00 | 0.00 | 76 | 1016.6 |
| 20260507070048 | 10 | 123 | 3.2 | 8.0 | 0.00 | 0.00 | 0.00 | 78 | 1016.5 |
| 20260507064551 | 9 | 146 | 1.6 | 8.0 | 0.00 | 0.00 | 0.00 | 80 | 1016.4 |
| 20260507063046 | 8 | 0 | 0.0 | 6.4 | 0.00 | 0.00 | 0.00 | 84 | 1016.3 |
| 20260507061552 | 8 | 0 | 0.0 | 0.0 | 0.00 | 0.00 | 0.00 | 88 | 1016.4 |
| 20260507060043 | 7 | 0 | 0.0 | 0.0 | 0.00 | 0.00 | 0.00 | 90 | 1016.3 |
| 20260507054604 | 7 | 0 | 0.0 | 0.0 | 0.00 | 0.00 | 0.00 | 91 | 1016.2 |
| 20260507053049 | 7 | 0 | 0.0 | 0.0 | 0.00 | 0.00 | 0.00 | 91 | 1016.1 |
| 20260507051552 | 6 | 0 | 0.0 | 0.0 | 0.00 | 0.00 | 0.00 | 91 | 1016.0 |
| 20260507050051 | 6 | 0 | 0.0 | 0.0 | 0.00 | 0.00 | 0.00 | 91 | 1016.0 |
| 20260507044556 | 6 | 0 | 0.0 | 0.0 | 0.00 | 0.00 | 0.00 | 90 | 1015.9 |
| 20260507043050 | 6 | 0 | 0.0 | 0.0 | 0.00 | 0.00 | 0.00 | 90 | 1015.8 |
| 20260507041559 | 6 | 0 | 0.0 | 0.0 | 0.00 | 0.00 | 0.00 | 89 | 1015.7 |
| 20260507040104 | 6 | 0 | 0.0 | 0.0 | 0.00 | 0.00 | 0.00 | 89 | 1015.6 |
| 20260507034553 | 7 | 0 | 0.0 | 0.0 | 0.00 | 0.00 | 0.00 | 89 | 1015.6 |
| 20260507033045 | 7 | 0 | 0.0 | 0.0 | 0.00 | 0.00 | 0.00 | 88 | 1015.6 |
| 20260507031546 | 7 | 0 | 0.0 | 0.0 | 0.00 | 0.00 | 0.00 | 88 | 1015.6 |
| 20260507030048 | 7 | 0 | 0.0 | 0.0 | 0.00 | 0.00 | 0.00 | 88 | 1015.6 |
| 20260507024544 | 7 | 0 | 0.0 | 0.0 | 0.00 | 0.00 | 0.00 | 88 | 1015.6 |
| 20260507023044 | 7 | 0 | 0.0 | 0.0 | 0.00 | 0.00 | 0.00 | 88 | 1015.6 |
| 20260507021546 | 7 | 0 | 0.0 | 0.0 | 0.00 | 0.00 | 0.00 | 88 | 1015.7 |
| 20260507020100 | 7 | 0 | 0.0 | 3.2 | 0.00 | 0.00 | 0.00 | 88 | 1015.6 |
| 20260507014559 | 7 | 0 | 0.0 | 4.8 | 0.00 | 0.00 | 0.00 | 87 | 1015.6 |
| 20260507013044 | 7 | 34 | 1.6 | 3.2 | 0.00 | 0.00 | 0.00 | 87 | 1015.5 |
| 20260507011554 | 7 | 0 | 0.0 | 3.2 | 0.00 | 0.00 | 0.00 | 87 | 1015.5 |
| 20260507010043 | 8 | 34 | 0.0 | 3.2 | 0.00 | 0.00 | 0.00 | 86 | 1015.5 |
| 20260507004547 | 8 | 0 | 1.6 | 3.2 | 0.00 | 0.00 | 0.00 | 86 | 1015.4 |
| 20260507003047 | 8 | 0 | 0.0 | 3.2 | 0.00 | 0.00 | 0.00 | 86 | 1015.4 |
| 20260507001555 | 8 | 0 | 0.0 | 3.2 | 0.00 | 0.00 | 0.00 | 85 | 1015.5 |
| 20260507000046 | 8 | 0 | 0.0 | 3.2 | 0.00 | 0.00 | 0.00 | 85 | 1015.6 |
| 20260506234558 | 8 | 0 | 0.0 | 1.6 | 0.00 | 0.00 | 0.00 | 84 | 1015.6 |
| 20260506233052 | 8 | 0 | 0.0 | 3.2 | 0.00 | 0.00 | 0.00 | 84 | 1015.5 |
| 20260506231542 | 8 | 50 | 0.0 | 4.8 | 0.00 | 0.00 | 0.00 | 84 | 1015.5 |
| 20260506230052 | 8 | 68 | 0.0 | 4.8 | 0.00 | 0.00 | 0.00 | 83 | 1015.5 |
| 20260506224546 | 8 | 57 | 0.0 | 4.8 | 0.00 | 0.00 | 0.00 | 82 | 1015.5 |
| 20260506223044 | 8 | 0 | 0.0 | 4.8 | 0.00 | 0.00 | 0.00 | 82 | 1015.5 |
| 20260506221544 | 8 | 78 | 0.0 | 4.8 | 0.00 | 0.00 | 0.00 | 82 | 1015.4 |
| 20260506220057 | 8 | 0 | 0.0 | 4.8 | 0.00 | 0.00 | 0.00 | 82 | 1015.4 |
| 20260506214546 | 8 | 0 | 0.0 | 6.4 | 0.00 | 0.00 | 0.00 | 82 | 1015.4 |
| 20260506213047 | 8 | 152 | 1.6 | 4.8 | 0.00 | 0.00 | 0.00 | 82 | 1015.3 |
| 20260506211547 | 8 | 118 | 0.0 | 4.8 | 0.00 | 0.00 | 0.00 | 83 | 1015.1 |
| 20260506210048 | 8 | 0 | 0.0 | 6.4 | 0.00 | 0.00 | 0.00 | 84 | 1015.0 |
| 20260506204544 | 9 | 129 | 1.6 | 6.4 | 0.00 | 0.00 | 0.00 | 83 | 1014.9 |
| 20260506203138 | 9 | 78 | 1.6 | 6.4 | 0.00 | 0.00 | 0.00 | 84 | 1014.9 |
| 20260506201549 | 9 | 81 | 0.0 | 4.8 | 0.00 | 0.00 | 0.00 | 84 | 1014.8 |
| 20260506200051 | 9 | 0 | 0.0 | 6.4 | 0.00 | 0.00 | 0.00 | 85 | 1014.7 |
| 20260506194552 | 10 | 0 | 1.6 | 8.0 | 0.00 | 0.00 | 0.00 | 85 | 1014.4 |
| 20260506193043 | 10 | 61 | 1.6 | 6.4 | 0.00 | 0.00 | 0.00 | 85 | 1014.4 |
| 20260506191554 | 10 | 55 | 1.6 | 6.4 | 0.00 | 0.00 | 0.00 | 84 | 1014.3 |
| 20260506190054 | 10 | 43 | 0.0 | 6.4 | 0.00 | 0.00 | 0.00 | 83 | 1014.2 |
| 20260506184559 | 10 | 350 | 1.6 | 8.0 | 0.00 | 0.00 | 0.00 | 82 | 1014.0 |
| 20260506183053 | 10 | 82 | 1.6 | 6.4 | 0.00 | 0.00 | 0.00 | 82 | 1013.9 |
| 20260506181545 | 11 | 86 | 0.0 | 8.0 | 0.00 | 0.00 | 0.00 | 82 | 1013.7 |
| 20260506180046 | 11 | 35 | 1.6 | 12.9 | 0.00 | 0.00 | 0.00 | 81 | 1013.5 |
| 20260506174606 | 11 | 90 | 3.2 | 9.7 | 0.00 | 0.00 | 0.00 | 80 | 1013.3 |
| 20260506173055 | 11 | 58 | 3.2 | 9.7 | 0.00 | 0.00 | 0.00 | 78 | 1013.1 |
| 20260506171547 | 11 | 5 | 3.2 | 8.0 | 0.00 | 0.00 | 0.00 | 76 | 1013.2 |
| 20260506170051 | 11 | 360 | 1.6 | 8.0 | 0.00 | 0.00 | 0.00 | 74 | 1013.2 |
| 20260506164557 | 11 | 5 | 1.6 | 8.0 | 0.00 | 0.00 | 0.00 | 74 | 1013.2 |
| 20260506163126 | 11 | 38 | 3.2 | 8.0 | 0.00 | 0.00 | 0.00 | 75 | 1013.3 |
| 20260506161550 | 11 | 13 | 4.8 | 11.3 | 0.00 | 0.00 | 0.00 | 74 | 1013.2 |
| 20260506160053 | 11 | 17 | 1.6 | 12.9 | 0.00 | 0.00 | 0.00 | 76 | 1013.3 |
| 20260506154555 | 11 | 22 | 3.2 | 8.0 | 0.00 | 0.00 | 0.00 | 76 | 1013.2 |
| 20260506153109 | 11 | 16 | 1.6 | 9.7 | 0.00 | 0.00 | 0.00 | 75 | 1013.1 |
| 20260506151553 | 11 | 57 | 3.2 | 12.9 | 0.00 | 0.00 | 0.00 | 75 | 1013.2 |
| 20260506150054 | 11 | 35 | 4.8 | 9.7 | 0.00 | 0.00 | 0.00 | 74 | 1013.1 |
| 20260506144554 | 11 | 355 | 3.2 | 11.3 | 0.00 | 0.00 | 0.00 | 73 | 1013.1 |
| 20260506143050 | 11 | 28 | 4.8 | 14.5 | 0.00 | 0.00 | 0.00 | 74 | 1013.1 |
| 20260506141549 | 11 | 20 | 1.6 | 9.7 | 0.00 | 0.00 | 0.00 | 76 | 1013.2 |
| 20260506140054 | 12 | 75 | 3.2 | 8.0 | 0.00 | 0.00 | 0.00 | 77 | 1013.1 |
| 20260506134552 | 12 | 61 | 3.2 | 11.3 | 0.00 | 0.00 | 0.00 | 76 | 1013.3 |
| 20260506133052 | 12 | 36 | 3.2 | 11.3 | 0.00 | 0.00 | 0.00 | 74 | 1013.2 |
| 20260506131550 | 12 | 67 | 3.2 | 16.1 | 0.00 | 0.00 | 0.00 | 71 | 1013.1 |
| 20260506130057 | 12 | 61 | 8.0 | 17.7 | 0.00 | 0.00 | 0.00 | 71 | 1013.0 |
| 20260506124555 | 12 | 38 | 8.0 | 17.7 | 0.00 | 0.00 | 0.00 | 70 | 1013.0 |
| 20260506123059 | 12 | 355 | 6.4 | 16.1 | 0.00 | 0.00 | 0.00 | 71 | 1013.0 |
| 20260506121608 | 12 | 72 | 3.2 | 16.1 | 0.00 | 0.00 | 0.00 | 67 | 1012.9 |
| 20260506120054 | 12 | 5 | 4.8 | 16.1 | 0.00 | 0.00 | 0.00 | 69 | 1012.9 |
| 20260506114551 | 12 | 28 | 6.4 | 16.1 | 0.00 | 0.00 | 0.00 | 68 | 1012.8 |
| 20260506113050 | 12 | 351 | 6.4 | 19.3 | 0.00 | 0.00 | 0.00 | 68 | 1012.8 |
| 20260506111547 | 13 | 38 | 6.4 | 17.7 | 0.00 | 0.00 | 0.00 | 67 | 1012.8 |